Location: Niverville
(49.6028°N, 97.0419°W)
Time: 03:25:28
(UTC-05:00)

Amateur Radio Satellites - All Passes

Search period start: 31 October 2014 02:55
Search period end: 01 November 2014 02:55
Location: Niverville, 49.6028°N, 97.0419°W

Satellite Date Start Highest point End Downlink Frequencies (MHz)
Time Altitude Azimuth
TMSAT-1 31 Oct 02:59:13 03:01:01 12° 84° (E) 03:02:48 436.925 FM
Sapphire 31 Oct 03:06:47 03:11:49 41° 115° (ESE) 03:16:53 437.095 MHz 1200 baud AX-25 AFSK
Uribyol 2 31 Oct 03:21:51 03:26:49 42° 98° (E) 03:31:43 436.500 FM
PCSat 31 Oct 03:28:07 03:33:27 63° 120° (ESE) 03:38:50 145.825 MHz
AO-Echo 31 Oct 03:28:48 03:34:07 62° 101° (E) 03:39:21 ?
ITAMSAT 1 31 Oct 03:29:38 03:34:42 47° 99° (E) 03:39:41 435.822 SSB
Oscar 19 31 Oct 03:42:05 03:47:10 64° 289° (WNW) 03:52:13 437.125 CW, 437.150 USB
AO-7 31 Oct 03:59:02 04:02:58 14° 83° (E) 04:06:54 29.400 - 29.500 MHz
RS-15 31 Oct 04:08:45 04:19:05 43° 21° (NNE) 04:29:43 29.354 - 29.394 USB, Beacon 29.352 USB
AO-27 31 Oct 04:17:07 04:22:21 73° 288° (WNW) 04:27:33 436.795 MHz FM
Oscar 16 31 Oct 04:29:38 04:33:56 28° 299° (WNW) 04:38:13 437.025 USB, Beacon 2401.1428
Gurwin Techsat 1B 31 Oct 04:29:52 04:35:14 84° 105° (ESE) 04:40:33 435.225 FM
JAS-1B 31 Oct 04:36:00 04:42:18 43° 296° (WNW) 04:49:42 435.800 - 435.900 CW/SSB
TMSAT-1 31 Oct 04:36:32 04:41:53 74° 103° (ESE) 04:47:10 436.925 FM
Sapphire 31 Oct 04:50:06 04:55:15 43° 316° (NW) 05:00:27 437.095 MHz 1200 baud AX-25 AFSK
OPAL 31 Oct 04:57:30 05:02:17 43° 64° (ENE) 05:07:02 ?
Uribyol 2 31 Oct 05:01:35 05:06:11 33° 297° (WNW) 05:10:45 436.500 FM
AO-Echo 31 Oct 05:08:14 05:12:29 25° 300° (WNW) 05:16:42 ?
ITAMSAT 1 31 Oct 05:09:30 05:14:01 30° 298° (WNW) 05:18:30 435.822 SSB
PCSat 31 Oct 05:12:26 05:17:15 32° 321° (NW) 05:22:07 145.825 MHz
STRAND 1 31 Oct 05:18:27 05:19:51 11° 49° (NE) 05:21:14 ?
Uosat F 31 Oct 05:20:13 05:24:40 30° 95° (E) 05:29:05 435.120 FM
Oscar 19 31 Oct 05:23:35 05:25:34 12° 309° (NW) 05:27:33 437.125 CW, 437.150 USB
JAS-2 31 Oct 05:39:55 05:46:08 25° 86° (E) 05:52:13 435.800 - 435.900 CW/SSB, 435.910 FM
Saudisat 1A 31 Oct 05:47:34 05:49:49 14° 111° (ESE) 05:52:06 436.775 MHz
AO-7 31 Oct 05:49:15 05:57:31 63° 104° (ESE) 06:05:46 29.400 - 29.500 MHz
AO-27 31 Oct 05:58:18 06:01:01 14° 308° (NW) 06:03:42 436.795 MHz FM
Gurwin Techsat 1B 31 Oct 06:10:58 06:14:34 19° 304° (NW) 06:18:10 435.225 FM
TMSAT-1 31 Oct 06:17:24 06:21:16 21° 303° (WNW) 06:25:07 436.925 FM
RS-15 31 Oct 06:21:53 06:33:03 86° 50° (NE) 06:44:41 29.354 - 29.394 USB, Beacon 29.352 USB
JAS-1B 31 Oct 06:30:03 06:31:27 11° 318° (NW) 06:32:52 435.800 - 435.900 CW/SSB
OPAL 31 Oct 06:36:48 06:41:18 31° 262° (W) 06:45:46 ?
Sapphire 31 Oct 06:36:48 06:40:08 16° 340° (NNW) 06:43:28 437.095 MHz 1200 baud AX-25 AFSK
Hamsat 31 Oct 06:46:40 06:50:28 32° 96° (E) 06:54:17 145.90 MHz
STRAND 1 31 Oct 06:52:58 06:57:59 56° 69° (ENE) 07:03:02 ?
Uosat F 31 Oct 06:58:49 07:03:35 43° 294° (WNW) 07:08:20 435.120 FM
PCSat 31 Oct 06:59:40 07:02:27 14° 346° (NNW) 07:05:14 145.825 MHz
MaSat-1 31 Oct 07:11:14 07:13:15 19° 47° (NE) 07:15:08 437.345 MHz
JAS-2 31 Oct 07:24:06 07:32:00 86° 287° (WNW) 07:39:45 435.800 - 435.900 CW/SSB, 435.910 FM
Saudisat 1A 31 Oct 07:24:20 07:28:44 90° 300° (WNW) 07:33:11 436.775 MHz
AO-7 31 Oct 07:42:28 07:50:00 40° 306° (NW) 07:57:32 29.400 - 29.500 MHz
SO-67 31 Oct 07:51:09 07:53:45 20° 93° (E) 07:56:21 435.3500 MHz FM
Hamsat 31 Oct 08:22:42 08:26:23 30° 294° (WNW) 08:30:04 145.90 MHz
Sapphire 31 Oct 08:23:36 08:25:56 13° 6° (N) 08:28:16 437.095 MHz 1200 baud AX-25 AFSK
STRAND 1 31 Oct 08:33:26 08:37:31 24° 268° (W) 08:41:39 ?
RS-15 31 Oct 08:34:57 08:44:17 33° 254° (WSW) 08:53:59 29.354 - 29.394 USB, Beacon 29.352 USB
HO-68 31 Oct 08:37:59 08:39:30 11° 80° (E) 08:41:01 435.675 MHz FM
PCSat 31 Oct 08:45:33 08:48:17 14° 13° (NNE) 08:51:02 145.825 MHz
MaSat-1 31 Oct 08:46:41 08:48:33 18° 249° (WSW) 08:50:20 437.345 MHz
Saudisat 1A 31 Oct 09:05:26 09:08:54 22° 331° (NNW) 09:12:23 436.775 MHz
JAS-2 31 Oct 09:10:00 09:16:04 26° 307° (NW) 09:22:08 435.800 - 435.900 CW/SSB, 435.910 FM
SO-67 31 Oct 09:23:42 09:26:48 32° 291° (WNW) 09:29:54 435.3500 MHz FM
AO-7 31 Oct 09:36:50 09:40:35 14° 330° (NNW) 09:44:21 29.400 - 29.500 MHz
KITSAT 1 31 Oct 09:50:12 09:51:53 11° 95° (E) 09:53:34 435.175 FM
Sapphire 31 Oct 10:07:03 10:11:26 24° 32° (NNE) 10:15:47 437.095 MHz 1200 baud AX-25 AFSK
HO-68 31 Oct 10:21:46 10:28:52 56° 101° (ESE) 10:35:53 435.675 MHz FM
UKube-1 31 Oct 10:28:11 10:31:41 23° 93° (E) 10:35:10 145.840 MHz, 145.915 MHz
PCSat 31 Oct 10:28:41 10:33:30 31° 38° (NE) 10:38:18 145.825 MHz
ZACube-1 31 Oct 10:37:55 10:39:52 13° 87° (E) 10:41:48 437.345 MHz
Saudisat 1A 31 Oct 10:48:22 10:50:04 12° 355° (N) 10:51:45 436.775 MHz
Oscar 11 31 Oct 11:02:50 11:07:03 49° 99° (E) 11:11:13 145.825 FM, Beacon 2401.500 USB
SO-50 31 Oct 11:14:33 11:17:33 18° 112° (ESE) 11:20:36 436.795 FM
ISS 31 Oct 11:15:24 11:18:13 26° 144° (SE) 11:21:03 145.800 FM
FUNcube-1 31 Oct 11:19:27 11:23:16 32° 96° (E) 11:27:01 145.950 - 145.970 MHz USB
KITSAT 1 31 Oct 11:37:40 11:45:24 53° 116° (ESE) 11:53:09 435.175 FM
Sapphire 31 Oct 11:50:10 11:55:39 85° 54° (NE) 12:01:05 437.095 MHz 1200 baud AX-25 AFSK
JAS-1B 31 Oct 11:51:17 11:52:50 11° 43° (NE) 11:54:25 435.800 - 435.900 CW/SSB
UKube-1 31 Oct 12:03:55 12:08:04 44° 292° (WNW) 12:12:12 145.840 MHz, 145.915 MHz
HO-68 31 Oct 12:09:51 12:16:21 38° 302° (WNW) 12:22:50 435.675 MHz FM
PCSat 31 Oct 12:11:57 12:17:20 65° 240° (WSW) 12:22:41 145.825 MHz
ZACube-1 31 Oct 12:12:36 12:16:50 73° 286° (WNW) 12:20:59 437.345 MHz
Saudisat 1A 31 Oct 12:28:43 12:31:26 16° 20° (NNE) 12:34:09 436.775 MHz
Oscar 16 31 Oct 12:33:53 12:37:30 20° 57° (ENE) 12:41:08 437.025 USB, Beacon 2401.1428
Oscar 11 31 Oct 12:39:40 12:42:56 21° 298° (WNW) 12:46:12 145.825 FM, Beacon 2401.500 USB
ISS 31 Oct 12:51:19 12:54:39 86° 343° (NNW) 12:58:01 145.800 FM
SO-50 31 Oct 12:52:59 12:57:32 77° 311° (NW) 13:02:14 436.795 FM
FUNcube-1 31 Oct 12:55:57 12:59:36 29° 295° (WNW) 13:03:11 145.950 - 145.970 MHz USB
Uribyol 2 31 Oct 13:06:57 13:10:25 18° 55° (NE) 13:13:54 436.500 FM
AO-Echo 31 Oct 13:09:06 13:12:49 21° 57° (ENE) 13:16:37 ?
ITAMSAT 1 31 Oct 13:14:38 13:18:19 20° 56° (NE) 13:22:00 435.822 SSB
AO-7 31 Oct 13:15:50 13:18:41 12° 26° (NNE) 13:21:33 29.400 - 29.500 MHz
Oscar 19 31 Oct 13:24:25 13:29:17 45° 67° (ENE) 13:34:10 437.125 CW, 437.150 USB
KITSAT 1 31 Oct 13:33:02 13:40:54 52° 319° (NW) 13:48:48 435.175 FM
Sapphire 31 Oct 13:34:48 13:38:23 18° 254° (WSW) 13:41:58 437.095 MHz 1200 baud AX-25 AFSK
JAS-1B 31 Oct 13:36:38 13:42:09 54° 67° (ENE) 13:47:50 435.800 - 435.900 CW/SSB
UOSAT-12 31 Oct 13:37:12 13:41:31 39° 120° (ESE) 13:45:54 437.025 FM, 437.400 FM
ZACube-1 31 Oct 13:51:44 13:52:27 10° 306° (NW) 13:53:10 437.345 MHz
PCSat 31 Oct 13:58:18 13:59:42 11° 259° (W) 14:01:06 145.825 MHz
HO-68 31 Oct 14:00:12 14:02:08 11° 325° (NW) 14:04:03 435.675 MHz FM
AO-27 31 Oct 14:00:39 14:05:33 43° 66° (ENE) 14:10:30 436.795 MHz FM
Saudisat 1A 31 Oct 14:07:46 14:12:03 46° 42° (NE) 14:16:19 436.775 MHz
Oscar 16 31 Oct 14:11:10 14:16:19 76° 256° (WSW) 14:21:29 437.025 USB, Beacon 2401.1428
Gurwin Techsat 1B 31 Oct 14:16:24 14:21:06 33° 63° (ENE) 14:25:50 435.225 FM
TMSAT-1 31 Oct 14:23:00 14:27:31 29° 62° (ENE) 14:32:03 436.925 FM
ISS 31 Oct 14:28:13 14:31:31 59° 3° (N) 14:34:50 145.800 FM
SO-50 31 Oct 14:35:16 14:38:51 22° 334° (NNW) 14:42:30 436.795 FM
Uribyol 2 31 Oct 14:44:01 14:49:15 85° 255° (WSW) 14:54:32 436.500 FM
AO-Echo 31 Oct 14:46:02 14:51:03 71° 257° (WSW) 14:56:16 ?
ITAMSAT 1 31 Oct 14:52:00 14:57:14 78° 256° (WSW) 15:02:31 435.822 SSB
AO-7 31 Oct 15:01:52 15:09:01 34° 51° (NE) 15:16:12 29.400 - 29.500 MHz
Uosat F 31 Oct 15:02:37 15:04:40 12° 51° (NE) 15:06:42 435.120 FM
Oscar 19 31 Oct 15:04:22 15:08:48 29° 266° (W) 15:13:16 437.125 CW, 437.150 USB
UOSAT-12 31 Oct 15:17:14 15:21:41 41° 320° (NW) 15:26:12 437.025 FM, 437.400 FM
JAS-1B 31 Oct 15:28:45 15:33:21 25° 269° (W) 15:38:02 435.800 - 435.900 CW/SSB
KITSAT 1 31 Oct 15:31:41 15:38:18 27° 347° (NNW) 15:44:56 435.175 FM
AO-27 31 Oct 15:40:33 15:45:12 32° 265° (W) 15:49:52 436.795 MHz FM
Saudisat 1A 31 Oct 15:47:37 15:51:29 30° 242° (WSW) 15:55:21 436.775 MHz
Oscar 16 31 Oct 15:54:53 15:56:34 11° 275° (W) 15:58:15 437.025 USB, Beacon 2401.1428
Gurwin Techsat 1B 31 Oct 15:55:56 16:00:58 43° 262° (W) 16:06:03 435.225 FM
JAS-2 31 Oct 15:58:21 16:02:50 19° 47° (NE) 16:07:36 435.800 - 435.900 CW/SSB, 435.910 FM
TMSAT-1 31 Oct 16:02:06 16:07:13 49° 261° (W) 16:12:24 436.925 FM
ISS 31 Oct 16:04:59 16:08:19 70° 203° (SSW) 16:11:39 145.800 FM
SO-50 31 Oct 16:18:51 16:21:08 13° 359° (N) 16:23:27 436.795 FM
Uribyol 2 31 Oct 16:26:58 16:29:32 14° 274° (W) 16:32:06 436.500 FM
AO-Echo 31 Oct 16:29:46 16:30:50 11° 277° (W) 16:31:54 ?
ITAMSAT 1 31 Oct 16:35:33 16:37:37 12° 275° (W) 16:39:41 435.822 SSB
Uosat F 31 Oct 16:37:32 16:42:31 65° 71° (ENE) 16:47:33 435.120 FM
AO-7 31 Oct 16:52:58 17:01:14 74° 253° (WSW) 17:09:35 29.400 - 29.500 MHz
UOSAT-12 31 Oct 17:00:05 17:03:03 16° 343° (NNW) 17:06:02 437.025 FM, 437.400 FM
KITSAT 1 31 Oct 17:29:50 17:36:34 28° 16° (NNE) 17:43:18 435.175 FM
JAS-2 31 Oct 17:40:05 17:46:31 70° 70° (ENE) 17:53:49 435.800 - 435.900 CW/SSB, 435.910 FM
ISS 31 Oct 17:42:21 17:44:34 17° 221° (SW) 17:46:47 145.800 FM
Hamsat 31 Oct 17:44:03 17:47:56 39° 69° (ENE) 17:51:51 145.90 MHz
SO-50 31 Oct 18:00:02 18:03:30 19° 23° (NNE) 18:07:01 436.795 FM
Uosat F 31 Oct 18:18:09 18:21:47 20° 269° (W) 18:25:26 435.120 FM
SO-67 31 Oct 18:28:36 18:30:34 15° 63° (ENE) 18:32:32 435.3500 MHz FM
OPAL 31 Oct 18:41:29 18:46:16 46° 102° (ESE) 18:51:01 ?
UOSAT-12 31 Oct 18:42:37 18:45:05 14° 8° (N) 18:47:32 437.025 FM, 437.400 FM
AO-7 31 Oct 18:50:22 18:55:30 18° 274° (W) 19:00:41 29.400 - 29.500 MHz
STRAND 1 31 Oct 19:00:50 19:03:18 13° 86° (E) 19:05:46 ?
HO-68 31 Oct 19:10:37 19:15:08 18° 44° (NE) 19:19:40 435.675 MHz FM
Hamsat 31 Oct 19:20:40 19:24:02 23° 267° (W) 19:27:25 145.90 MHz
KITSAT 1 31 Oct 19:25:50 19:33:49 58° 43° (NE) 19:41:45 435.175 FM
JAS-2 31 Oct 19:26:52 19:32:17 27° 273° (W) 19:38:15 435.800 - 435.900 CW/SSB, 435.910 FM
SO-50 31 Oct 19:40:13 19:45:00 60° 45° (NE) 19:49:50 436.795 FM
Oscar 10/S400 31 Oct 19:50:04 20:17:10 44° 189° (S) 02:45:15 145.825 - 145.975 CW/USB, Beacon 145.810 USB
SO-67 31 Oct 19:59:50 20:03:10 48° 261° (W) 20:06:32 435.3500 MHz FM
OPAL 31 Oct 20:20:44 20:24:59 29° 301° (WNW) 20:29:11 ?
UOSAT-12 31 Oct 20:22:42 20:26:47 27° 32° (NNE) 20:30:48 437.025 FM, 437.400 FM
Oscar 11 31 Oct 20:30:26 20:30:45 10° 54° (NE) 20:31:04 145.825 FM, Beacon 2401.500 USB
STRAND 1 31 Oct 20:38:05 20:43:17 86° 105° (ESE) 20:48:26 ?
RS-15 31 Oct 20:52:21 21:01:32 33° 106° (ESE) 21:10:41 29.354 - 29.394 USB, Beacon 29.352 USB
HO-68 31 Oct 20:54:31 21:01:35 65° 66° (ENE) 21:08:42 435.675 MHz FM
SO-50 31 Oct 21:21:17 21:25:17 26° 244° (WSW) 21:29:18 436.795 FM
KITSAT 1 31 Oct 21:21:32 21:29:07 46° 246° (WSW) 21:36:39 435.175 FM
UKube-1 31 Oct 21:27:31 21:31:29 35° 66° (ENE) 21:35:29 145.840 MHz, 145.915 MHz
ZACube-1 31 Oct 21:37:57 21:41:18 21° 62° (ENE) 21:44:35 437.345 MHz
Oscar 11 31 Oct 22:01:50 22:06:07 67° 73° (ENE) 22:10:25 145.825 FM, Beacon 2401.500 USB
UOSAT-12 31 Oct 22:02:39 22:07:23 73° 233° (SW) 22:12:03 437.025 FM, 437.400 FM
STRAND 1 31 Oct 22:18:28 22:21:50 18° 305° (NW) 22:25:11 ?
FUNcube-1 31 Oct 22:19:32 22:23:51 47° 70° (ENE) 22:28:05 145.950 - 145.970 MHz USB
MaSat-1 31 Oct 22:24:56 22:28:00 24° 112° (ESE) 22:30:50 437.345 MHz
HO-68 31 Oct 22:43:35 22:49:47 31° 267° (W) 22:56:02 435.675 MHz FM
RS-15 31 Oct 23:01:44 23:12:44 84° 311° (NW) 23:23:48 29.354 - 29.394 USB, Beacon 29.352 USB
UKube-1 31 Oct 23:03:56 23:07:44 29° 265° (W) 23:11:33 145.840 MHz, 145.915 MHz
ZACube-1 31 Oct 23:12:57 23:17:22 54° 260° (W) 23:21:44 437.345 MHz
Oscar 11 31 Oct 23:40:16 23:42:46 15° 271° (W) 23:45:16 145.825 FM, Beacon 2401.500 USB
UOSAT-12 31 Oct 23:45:03 23:46:42 12° 252° (WSW) 23:48:20 437.025 FM, 437.400 FM
FUNcube-1 31 Oct 23:56:55 00:00:26 22° 268° (W) 00:03:56 145.950 - 145.970 MHz USB
MaSat-1 31 Oct 23:59:55 00:03:18 33° 307° (NW) 00:06:21 437.345 MHz
JAS-1B 01 Nov 01:15:51 01:19:08 13° 84° (E) 01:22:38 435.800 - 435.900 CW/SSB
RS-15 01 Nov 01:16:33 01:26:44 42° 341° (NNW) 01:37:07 29.354 - 29.394 USB, Beacon 29.352 USB
Oscar 19 01 Nov 01:34:04 01:35:19 11° 84° (E) 01:36:34 437.125 CW, 437.150 USB
AO-27 01 Nov 02:12:35 02:13:00 10° 83° (E) 02:13:24 436.795 MHz FM
Oscar 16 01 Nov 02:18:49 02:23:12 28° 94° (E) 02:27:33 437.025 USB, Beacon 2401.1428
Sapphire 01 Nov 02:36:46 02:41:28 31° 112° (ESE) 02:46:13 437.095 MHz 1200 baud AX-25 AFSK
